CW5766 Weather Reports


time (UTC)temp
F
wind
direction
speed
knots
gust
knots
rain 1hr
in
rain 24hr
in
rain mn
in
humidity
%
barometer
mb
20260507201331 52 210 0.9 5.2 0.07 0.00 0.80 100 998.5
20260507200825 52 216 0.0 3.5 0.06 0.00 0.79 100 998.5
20260507200338 52 215 0.9 3.5 0.32 0.00 0.79 100 998.5
20260507195830 52 213 0.9 3.5 0.32 0.00 0.79 100 998.5
20260507195345 51 213 0.9 6.1 0.31 0.00 0.78 100 998.5
20260507194859 51 212 0.9 6.1 0.31 0.00 0.78 100 998.5
20260507194332 51 223 0.0 3.5 0.30 0.00 0.77 100 998.5
20260507193826 51 223 1.7 5.2 0.30 0.00 0.77 100 998.9
20260507193338 51 206 0.9 5.2 0.29 0.00 0.76 100 998.9
20260507192831 51 224 0.0 3.5 0.28 0.00 0.75 100 998.9
20260507192345 50 224 1.7 6.1 0.28 0.00 0.75 100 998.9
20260507191857 50 213 2.6 6.1 0.27 0.00 0.74 100 998.9
20260507191327 50 220 1.7 7.0 0.26 0.00 0.73 100 998.9
20260507190842 50 230 3.5 7.0 0.26 0.00 0.73 100 998.9
20260507190358 50 205 0.0 0.0 0.25 0.00 0.72 100 998.9
20260507163335 49 110 0.9 3.5 0.13 0.00 0.46 100 999.9
20260507162826 48 110 0.0 0.0 0.14 0.00 0.45 100 999.9
20260507162343 48 110 0.0 1.7 0.14 0.00 0.44 100 1000.0
20260507161922 48 110 0.0 3.5 0.14 0.00 0.43 100 1000.0
20260507161332 48 109 0.0 5.2 0.13 0.00 0.41 100 999.9
20260507160827 48 110 1.7 6.1 0.13 0.00 0.40 100 1000.9
20260507160402 48 141 0.0 6.1 0.12 0.00 0.39 100 1000.9
20260507155856 48 198 0.0 1.7 0.12 0.00 0.38 100 1000.9
20260507155346 48 198 0.0 6.1 0.11 0.00 0.37 100 1001.0
20260507154901 48 196 0.9 7.0 0.11 0.00 0.36 100 1001.0
20260507154354 48 253 2.6 7.0 0.11 0.00 0.35 100 1001.0
20260507153826 48 232 0.0 7.0 0.10 0.00 0.34 100 1001.0
20260507153337 49 232 2.6 7.0 0.09 0.00 0.33 100 1001.0
20260507152850 49 250 0.9 7.8 0.09 0.00 0.32 100 1001.0
20260507152322 49 251 2.6 9.6 0.08 0.00 0.30 100 1001.3
20260507151902 50 263 5.2 9.6 0.07 0.00 0.29 100 1001.3
20260507151356 50 292 4.3 9.6 0.06 0.00 0.28 100 1001.3
20260507150832 50 241 4.3 13.0 0.05 0.00 0.27 100 1001.4
20260507150344 50 240 5.2 13.0 0.06 0.00 0.27 100 1001.4
20260507145836 51 253 3.5 8.7 0.06 0.00 0.26 100 1001.4
20260507145329 51 189 2.6 7.8 0.06 0.00 0.26 100 1001.8
20260507144841 51 256 3.5 8.7 0.05 0.00 0.25 100 1001.8
20260507144338 51 223 3.5 11.3 0.05 0.00 0.25 100 1001.8
20260507143831 51 270 5.2 11.3 0.04 0.00 0.24 100 1001.6
20260507143328 51 219 5.2 9.6 0.04 0.00 0.24 100 1001.6
20260507142822 51 219 5.2 8.7 0.03 0.00 0.23 100 1001.6
20260507142333 51 294 7.0 12.2 0.02 0.00 0.22 100 1001.6
20260507141850 51 256 7.0 12.2 0.02 0.00 0.22 100 1001.6
20260507141323 51 212 5.2 13.0 0.02 0.00 0.22 100 1001.6
20260507140837 52 212 7.0 13.0 0.02 0.00 0.22 100 1001.6
20260507140330 52 172 5.2 9.6 0.01 0.00 0.21 100 1001.6
20260507135822 52 223 5.2 9.6 0.00 0.00 0.20 100 1001.6
20260507135336 52 271 5.2 14.8 0.00 0.00 0.20 100 1002.0
20260507134917 52 272 6.1 14.8 0.00 0.00 0.20 100 1002.0
20260507134351 52 217 6.1 14.8 0.00 0.00 0.20 100 1002.0
20260507133824 52 247 6.1 14.8 0.00 0.00 0.20 100 1002.1
20260507133337 52 275 3.5 13.0 0.00 0.00 0.20 100 1002.1
20260507132832 52 263 4.3 11.3 0.00 0.00 0.20 100 1002.1
20260507132345 52 258 6.1 12.2 0.00 0.00 0.20 100 1002.2
20260507131859 52 241 7.0 12.2 0.00 0.00 0.20 100 1002.2
20260507131352 52 272 6.1 12.2 0.00 0.00 0.20 100 1002.2
20260507130829 52 206 3.5 12.2 0.00 0.00 0.20 100 1002.5
20260507130338 52 200 3.5 8.7 0.00 0.00 0.20 100 1002.5
20260507125850 52 206 5.2 13.0 0.01 0.00 0.20 100 1002.5
20260507125322 52 265 3.5 13.0 0.01 0.00 0.20 100 1003.0
20260507124922 52 148 6.1 18.2 0.01 0.00 0.20 100 1003.0
20260507124334 52 243 6.1 18.2 0.00 0.00 0.20 100 1003.0
20260507123828 52 246 7.0 13.0 0.00 0.00 0.20 100 1003.3
20260507123322 52 265 7.0 14.8 0.00 0.00 0.20 100 1003.3
20260507122901 52 265 6.1 14.8 0.00 0.00 0.20 100 1003.3
20260507122331 52 256 6.1 13.0 0.00 0.00 0.20 100 1003.3
20260507121850 53 244 4.3 14.8 0.00 0.00 0.20 100 1003.3
20260507121323 53 219 5.2 14.8 0.00 0.00 0.20 100 1003.3
20260507120835 53 226 6.1 13.9 0.00 0.00 0.20 100 1003.1
20260507120330 53 171 6.1 13.9 0.00 0.00 0.20 100 1003.1
20260507115824 53 264 5.2 12.2 0.00 0.00 0.19 100 1003.1
20260507115340 53 270 7.8 12.2 0.00 0.00 0.19 100 1003.3
20260507114834 53 191 6.1 12.2 0.00 0.00 0.19 100 1003.3
20260507114419 53 226 7.0 0.0 0.00 0.00 0.19 100 1003.3
20260507022828 54 256 3.5 13.0 0.00 0.00 0.00 85 1011.3
20260507022342 54 265 5.2 13.0 0.00 0.00 0.00 85 1011.5
20260507021851 54 256 6.1 11.3 0.00 0.00 0.00 85 1011.5
20260507021326 54 240 6.1 11.3 0.00 0.00 0.00 84 1011.5
20260507020839 54 261 7.0 11.3 0.00 0.00 0.00 84 1011.8
20260507020333 54 274 5.2 11.3 0.00 0.00 0.00 84 1011.8
20260507015829 55 209 6.1 11.3 0.00 0.00 0.00 84 1011.8
20260507015342 55 248 7.0 11.3 0.00 0.00 0.00 84 1011.9
20260507014855 54 233 7.0 11.3 0.00 0.00 0.00 84 1011.9
20260507014331 54 206 7.0 12.2 0.00 0.00 0.00 84 1011.8
20260507013826 54 253 6.1 12.2 0.00 0.00 0.00 85 1012.0
20260507013339 54 222 6.1 9.6 0.00 0.00 0.00 85 1012.0
20260507012832 54 251 7.0 12.2 0.00 0.00 0.00 85 1012.0
20260507012324 54 267 7.0 13.9 0.00 0.00 0.00 84 1012.3
20260507011908 54 254 7.0 13.9 0.00 0.00 0.00 85 1012.3
20260507011341 54 248 5.2 14.8 0.00 0.00 0.00 85 1012.3
20260507010855 54 213 7.0 14.8 0.00 0.00 0.00 85 1012.4
20260507010329 54 241 7.8 14.8 0.00 0.00 0.00 84 1012.4
20260507005824 54 270 8.7 14.8 0.00 0.00 0.00 85 1012.4
20260507005338 54 258 7.0 13.0 0.00 0.00 0.00 85 1012.4
20260507004852 54 260 7.0 14.8 0.00 0.00 0.00 85 1012.4
20260507004348 54 220 7.0 14.8 0.00 0.00 0.00 85 1012.4
20260507003842 54 272 7.8 14.8 0.00 0.00 0.00 85 1012.4
20260507003353 54 258 7.0 14.8 0.00 0.00 0.00 85 1012.4
20260507002828 54 251 7.8 14.8 0.00 0.00 0.00 84 1012.4
20260507002341 54 267 8.7 15.6 0.00 0.00 0.00 84 1012.4
20260507001855 54 205 7.0 15.6 0.00 0.00 0.00 84 1012.4
20260507001332 54 248 7.8 17.4 0.00 0.00 0.00 84 1012.4
20260507000826 54 233 8.7 17.4 0.00 0.00 0.00 84 1012.4
20260507000339 54 260 7.8 15.6 0.00 0.00 0.00 84 1012.4
20260506235834 54 239 7.8 15.6 0.00 0.00 0.00 84 1012.4
20260506235348 54 244 6.1 15.6 0.00 0.00 0.00 84 1012.4
20260506234842 54 224 6.1 13.9 0.00 0.00 0.00 84 1012.4
20260506234328 54 263 7.0 14.8 0.00 0.00 0.00 84 1012.4
20260506233822 54 267 7.0 14.8 0.00 0.00 0.00 83 1012.3
20260506233334 54 210 8.7 13.9 0.00 0.00 0.00 83 1012.3
20260506232828 54 246 7.8 15.6 0.00 0.00 0.00 83 1012.3
20260506232323 54 202 7.8 15.6 0.00 0.00 0.00 83 1012.4
20260506231843 54 222 6.1 13.9 0.00 0.00 0.00 83 1012.4
20260506231338 54 263 7.0 13.9 0.00 0.00 0.00 82 1012.4
20260506230850 54 267 6.1 17.4 0.00 0.00 0.00 82 1012.4
20260506230321 54 233 8.7 17.4 0.00 0.00 0.00 82 1012.4
20260506225832 55 232 6.1 17.4 0.00 0.00 0.00 82 1012.4
20260506225342 55 251 8.7 15.6 0.00 0.00 0.00 82 1012.4
20260506224858 55 271 7.0 13.9 0.00 0.00 0.00 82 1012.4
20260506224334 55 196 7.8 19.1 0.00 0.00 0.00 81 1012.4
20260506223825 55 193 6.1 19.1 0.00 0.00 0.00 81 1012.8
20260506223339 55 261 11.3 19.1 0.00 0.00 0.00 81 1012.8
20260506222833 55 236 7.8 19.1 0.00 0.00 0.00 81 1012.8
20260506222330 56 256 8.7 20.0 0.00 0.00 0.00 81 1012.7
20260506221844 56 230 7.8 20.0 0.00 0.00 0.00 80 1012.7
20260506221340 56 203 7.8 15.6 0.00 0.00 0.00 80 1012.7
20260506220834 56 217 7.8 17.4 0.00 0.00 0.00 80 1012.6
20260506220328 56 244 8.7 19.1 0.00 0.00 0.00 80 1012.6
20260506215821 57 271 8.7 19.1 0.00 0.00 0.00 80 1012.6
20260506215335 57 263 9.6 17.4 0.00 0.00 0.00 79 1012.4
20260506214849 57 189 9.6 17.4 0.00 0.00 0.00 79 1012.4
20260506214342 57 246 8.7 17.4 0.00 0.00 0.00 79 1012.4
20260506213856 58 181 10.4 15.6 0.00 0.00 0.00 79 1012.4
20260506213328 58 234 5.2 18.2 0.00 0.00 0.00 79 1012.4
20260506212821 58 216 9.6 18.2 0.00 0.00 0.00 78 1012.4
20260506212402 58 254 7.0 12.2 0.00 0.00 0.00 78 1012.4
20260506211858 59 182 7.8 12.2 0.00 0.00 0.00 79 1012.4
20260506211349 59 237 7.0 12.2 0.00 0.00 0.00 79 1012.4
20260506210822 59 265 7.8 11.3 0.00 0.00 0.00 79 1012.1
20260506210337 59 258 6.1 13.0 0.00 0.00 0.00 79 1012.1
20260506205833 59 258 6.1 13.0 0.00 0.00 0.00 79 1012.1
20260506205326 59 206 6.1 14.8 0.00 0.00 0.00 78 1012.4
20260506204841 59 250 7.0 14.8 0.00 0.00 0.00 78 1012.4
20260506204337 59 232 6.1 14.8 0.00 0.00 0.00 78 1012.4
20260506203850 60 251 6.1 13.0 0.00 0.00 0.00 78 1012.4
20260506203346 60 227 6.1 13.0 0.00 0.00 0.00 78 1012.4